Location: *
(29.1167°S, 130.0000°E)
Time: 05:54:23
(UTC+00:00)

NOSS 3-1 (C) - Pass Details

Date: 21 July 2019
Orbit: 775 x 1433 km, 63.4° (Epoch: 11 August)

Event Time Altitude Azimuth Distance (km) Brightness Sun altitude
Rises 09:18:58 0° 203° (SSW) 3,672 6.6 -8.3°
Reaches altitude 10° 09:21:46 10° 198° (SSW) 2,627 5.8 -8.8°
Maximum altitude 09:27:34 49° 123° (ESE) 1,069 3.4 -10.0°
Drops below altitude 10° 09:32:44 10° 48° (NE) 2,351 5.2 -11.1°
Sets 09:35:07 0° 42° (NE) 3,250 6.0 -11.6°
